owner,sensor,date,latitude,longitude,vertical_datum,mass_concentration_of_oxygen_in_sea_water,qcFlag 
DISL,ioos:station:DISL:PPTA:1,2014-11-01T00:00:00Z,30.2791,-87.5561,1.185,6.06,1111122 
DISL,ioos:station:DISL:PPTA:1,2014-11-01T00:30:00Z,30.2791,-87.5561,1.201,6.69,1111122 
DISL,ioos:station:DISL:PPTA:1,2014-11-01T01:00:00Z,30.2791,-87.5561,1.179,5.76,1111122 
DISL,ioos:station:DISL:PPTA:1,2014-11-01T01:30:00Z,30.2791,-87.5561,1.193,6.47,1111122 
DISL,ioos:station:DISL:PPTA:1,2014-11-01T02:00:00Z,30.2791,-87.5561,1.176,6.55,1111122 
DISL,ioos:station:DISL:PPTA:1,2014-11-01T02:30:00Z,30.2791,-87.5561,1.186,6.34,1111122 
DISL,ioos:station:DISL:PPTA:1,2014-11-01T03:00:00Z,30.2791,-87.5561,1.201,7.07,1111122 
DISL,ioos:station:DISL:PPTA:1,2014-11-01T03:30:00Z,30.2791,-87.5561,1.189,6.36,1111122 
DISL,ioos:station:DISL:PPTA:1,2014-11-01T04:00:00Z,30.2791,-87.5561,1.2,6.93,1111122 
DISL,ioos:station:DISL:PPTA:1,2014-11-01T04:30:00Z,30.2791,-87.5561,1.179,7.23,1111122 
DISL,ioos:station:DISL:PPTA:1,2014-11-01T05:00:00Z,30.2791,-87.5561,1.208,7.22,1111122 
DISL,ioos:station:DISL:PPTA:1,2014-11-01T05:30:00Z,30.2791,-87.5561,1.186,7.25,1111122 
DISL,ioos:station:DISL:PPTA:1,2014-11-01T06:00:00Z,30.2791,-87.5561,1.191,7.24,1111122 
DISL,ioos:station:DISL:PPTA:1,2014-11-01T06:30:00Z,30.2791,-87.5561,1.194,7.15,1111122 
DISL,ioos:station:DISL:PPTA:1,2014-11-01T07:00:00Z,30.2791,-87.5561,1.198,7.13,1111122 
DISL,ioos:station:DISL:PPTA:1,2014-11-01T07:30:00Z,30.2791,-87.5561,1.201,7.36,1111122 
DISL,ioos:station:DISL:PPTA:1,2014-11-01T08:00:00Z,30.2791,-87.5561,1.221,7.29,1111122 
DISL,ioos:station:DISL:PPTA:1,2014-11-01T08:30:00Z,30.2791,-87.5561,1.227,7.15,1111122 
DISL,ioos:station:DISL:PPTA:1,2014-11-01T09:00:00Z,30.2791,-87.5561,1.21,7.11,1111122 
DISL,ioos:station:DISL:PPTA:1,2014-11-01T09:30:00Z,30.2791,-87.5561,1.178,7.22,1111122 
DISL,ioos:station:DISL:PPTA:1,2014-11-01T10:00:00Z,30.2791,-87.5561,1.184,7.12,1111122 
DISL,ioos:station:DISL:PPTA:1,2014-11-01T10:30:00Z,30.2791,-87.5561,1.183,7.2,1111122 
DISL,ioos:station:DISL:PPTA:1,2014-11-01T11:00:00Z,30.2791,-87.5561,1.146,7.13,1111122 
DISL,ioos:station:DISL:PPTA:1,2014-11-01T11:30:00Z,30.2791,-87.5561,1.152,7.28,1111122 
DISL,ioos:station:DISL:PPTA:1,2014-11-01T12:00:00Z,30.2791,-87.5561,1.167,7.32,1111122 
DISL,ioos:station:DISL:PPTA:1,2014-11-01T12:30:00Z,30.2791,-87.5561,1.133,7.15,1111122 
DISL,ioos:station:DISL:PPTA:1,2014-11-01T13:00:00Z,30.2791,-87.5561,1.12,7.11,1111122 
DISL,ioos:station:DISL:PPTA:1,2014-11-01T13:30:00Z,30.2791,-87.5561,1.104,7.41,1111122 
DISL,ioos:station:DISL:PPTA:1,2014-11-01T14:00:00Z,30.2791,-87.5561,1.088,7.33,1111122 
DISL,ioos:station:DISL:PPTA:1,2014-11-01T14:30:00Z,30.2791,-87.5561,1.079,7.43,1111122 
DISL,ioos:station:DISL:PPTA:1,2014-11-01T15:00:00Z,30.2791,-87.5561,1.059,7.52,1111122 
DISL,ioos:station:DISL:PPTA:1,2014-11-01T15:30:00Z,30.2791,-87.5561,1.067,7.5,1111122 
DISL,ioos:station:DISL:PPTA:1,2014-11-01T16:00:00Z,30.2791,-87.5561,1.066,7.5,1111122 
DISL,ioos:station:DISL:PPTA:1,2014-11-01T16:30:00Z,30.2791,-87.5561,1.041,7.43,1111122 
DISL,ioos:station:DISL:PPTA:1,2014-11-01T17:00:00Z,30.2791,-87.5561,1.057,7.54,1111122 
DISL,ioos:station:DISL:PPTA:1,2014-11-01T17:30:00Z,30.2791,-87.5561,1.043,7.52,1111122 
DISL,ioos:station:DISL:PPTA:1,2014-11-01T18:00:00Z,30.2791,-87.5561,1.025,7.38,1111122 
DISL,ioos:station:DISL:PPTA:1,2014-11-01T18:30:00Z,30.2791,-87.5561,1.033,7.55,1111122 
DISL,ioos:station:DISL:PPTA:1,2014-11-01T19:00:00Z,30.2791,-87.5561,1.001,7.72,1111122 
DISL,ioos:station:DISL:PPTA:1,2014-11-01T19:30:00Z,30.2791,-87.5561,1.004,7.67,1111122 
DISL,ioos:station:DISL:PPTA:1,2014-11-01T20:00:00Z,30.2791,-87.5561,0.995,7.66,1111122 
DISL,ioos:station:DISL:PPTA:1,2014-11-01T20:30:00Z,30.2791,-87.5561,0.989,7.62,1111122 
DISL,ioos:station:DISL:PPTA:1,2014-11-01T21:00:00Z,30.2791,-87.5561,0.987,7.51,1111122 
DISL,ioos:station:DISL:PPTA:1,2014-11-01T21:30:00Z,30.2791,-87.5561,0.978,7.51,1111122 
DISL,ioos:station:DISL:PPTA:1,2014-11-01T22:00:00Z,30.2791,-87.5561,0.995,7.64,1111122 
DISL,ioos:station:DISL:PPTA:1,2014-11-01T22:30:00Z,30.2791,-87.5561,0.999,7.83,1111122 
DISL,ioos:station:DISL:PPTA:1,2014-11-01T23:00:00Z,30.2791,-87.5561,1.0,7.61,1111122 
DISL,ioos:station:DISL:PPTA:1,2014-11-01T23:30:00Z,30.2791,-87.5561,0.993,7.03,1111122 
DISL,ioos:station:DISL:PPTA:1,2014-11-02T00:00:00Z,30.2791,-87.5561,1.0,6.9,1111122 
DISL,ioos:station:DISL:PPTA:1,2014-11-02T00:30:00Z,30.2791,-87.5561,0.991,7.11,1111122 
DISL,ioos:station:DISL:PPTA:1,2014-11-02T01:00:00Z,30.2791,-87.5561,0.987,7.12,1111122 
DISL,ioos:station:DISL:PPTA:1,2014-11-02T01:30:00Z,30.2791,-87.5561,0.969,6.87,1111122 
DISL,ioos:station:DISL:PPTA:1,2014-11-02T02:00:00Z,30.2791,-87.5561,0.975,6.93,1111122 
DISL,ioos:station:DISL:PPTA:1,2014-11-02T02:30:00Z,30.2791,-87.5561,0.972,6.97,1111122 
DISL,ioos:station:DISL:PPTA:1,2014-11-02T03:00:00Z,30.2791,-87.5561,0.965,6.92,1111122 
DISL,ioos:station:DISL:PPTA:1,2014-11-02T03:30:00Z,30.2791,-87.5561,0.972,7.64,1111122 
DISL,ioos:station:DISL:PPTA:1,2014-11-02T04:00:00Z,30.2791,-87.5561,0.965,7.68,1111122 
DISL,ioos:station:DISL:PPTA:1,2014-11-02T04:30:00Z,30.2791,-87.5561,0.976,7.49,1111122 
DISL,ioos:station:DISL:PPTA:1,2014-11-02T05:00:00Z,30.2791,-87.5561,0.986,7.82,1111122 
DISL,ioos:station:DISL:PPTA:1,2014-11-02T05:30:00Z,30.2791,-87.5561,0.975,7.73,1111122 
DISL,ioos:station:DISL:PPTA:1,2014-11-02T06:00:00Z,30.2791,-87.5561,0.99,7.62,1111122 
DISL,ioos:station:DISL:PPTA:1,2014-11-02T06:30:00Z,30.2791,-87.5561,0.987,7.8,1111122 
DISL,ioos:station:DISL:PPTA:1,2014-11-02T07:00:00Z,30.2791,-87.5561,0.998,7.77,1111122 
DISL,ioos:station:DISL:PPTA:1,2014-11-02T07:30:00Z,30.2791,-87.5561,0.997,7.88,1111122 
DISL,ioos:station:DISL:PPTA:1,2014-11-02T08:00:00Z,30.2791,-87.5561,1.01,6.63,1111122 
DISL,ioos:station:DISL:PPTA:1,2014-11-02T08:30:00Z,30.2791,-87.5561,1.016,6.27,1111122 
DISL,ioos:station:DISL:PPTA:1,2014-11-02T09:00:00Z,30.2791,-87.5561,1.018,6.36,1111122 
DISL,ioos:station:DISL:PPTA:1,2014-11-02T09:30:00Z,30.2791,-87.5561,1.017,6.35,1111122 
DISL,ioos:station:DISL:PPTA:1,2014-11-02T10:00:00Z,30.2791,-87.5561,1.025,6.36,1111122 
DISL,ioos:station:DISL:PPTA:1,2014-11-02T10:30:00Z,30.2791,-87.5561,1.024,6.23,1111122 
DISL,ioos:station:DISL:PPTA:1,2014-11-02T11:00:00Z,30.2791,-87.5561,1.049,6.33,1111122 
DISL,ioos:station:DISL:PPTA:1,2014-11-02T11:30:00Z,30.2791,-87.5561,1.047,6.58,1111122 
DISL,ioos:station:DISL:PPTA:1,2014-11-02T12:00:00Z,30.2791,-87.5561,1.059,6.41,1111122 
DISL,ioos:station:DISL:PPTA:1,2014-11-02T12:30:00Z,30.2791,-87.5561,1.046,6.4,1111122 
DISL,ioos:station:DISL:PPTA:1,2014-11-02T13:00:00Z,30.2791,-87.5561,1.038,6.22,1111122 
DISL,ioos:station:DISL:PPTA:1,2014-11-02T13:30:00Z,30.2791,-87.5561,1.057,6.33,1111122 
DISL,ioos:station:DISL:PPTA:1,2014-11-02T14:00:00Z,30.2791,-87.5561,1.032,6.55,1111122 
DISL,ioos:station:DISL:PPTA:1,2014-11-02T14:30:00Z,30.2791,-87.5561,1.04,6.62,1111122 
DISL,ioos:station:DISL:PPTA:1,2014-11-02T15:00:00Z,30.2791,-87.5561,1.035,6.84,1111122 
DISL,ioos:station:DISL:PPTA:1,2014-11-02T15:30:00Z,30.2791,-87.5561,1.022,7.29,1111122 
DISL,ioos:station:DISL:PPTA:1,2014-11-02T16:00:00Z,30.2791,-87.5561,1.009,7.26,1111122 
DISL,ioos:station:DISL:PPTA:1,2014-11-02T16:30:00Z,30.2791,-87.5561,1.027,7.39,1111122 
DISL,ioos:station:DISL:PPTA:1,2014-11-02T17:00:00Z,30.2791,-87.5561,1.012,7.34,1111122 
DISL,ioos:station:DISL:PPTA:1,2014-11-02T17:30:00Z,30.2791,-87.5561,0.991,7.4,1111122 
DISL,ioos:station:DISL:PPTA:1,2014-11-02T18:00:00Z,30.2791,-87.5561,0.993,7.93,1111122 
DISL,ioos:station:DISL:PPTA:1,2014-11-02T18:30:00Z,30.2791,-87.5561,0.996,7.55,1111122 
DISL,ioos:station:DISL:PPTA:1,2014-11-02T19:00:00Z,30.2791,-87.5561,1.002,7.65,1111122 
DISL,ioos:station:DISL:PPTA:1,2014-11-02T19:30:00Z,30.2791,-87.5561,1.002,7.56,1111122 
DISL,ioos:station:DISL:PPTA:1,2014-11-02T20:00:00Z,30.2791,-87.5561,1.008,7.82,1111122 
DISL,ioos:station:DISL:PPTA:1,2014-11-02T20:30:00Z,30.2791,-87.5561,1.011,7.91,1111122 
DISL,ioos:station:DISL:PPTA:1,2014-11-02T21:00:00Z,30.2791,-87.5561,1.038,8.18,1111122 
DISL,ioos:station:DISL:PPTA:1,2014-11-02T21:30:00Z,30.2791,-87.5561,1.026,7.85,1111122 
DISL,ioos:station:DISL:PPTA:1,2014-11-02T22:00:00Z,30.2791,-87.5561,1.021,8.17,1111122 
DISL,ioos:station:DISL:PPTA:1,2014-11-02T22:30:00Z,30.2791,-87.5561,1.025,7.74,1111122 
DISL,ioos:station:DISL:PPTA:1,2014-11-02T23:00:00Z,30.2791,-87.5561,1.026,7.38,1111122 
DISL,ioos:station:DISL:PPTA:1,2014-11-02T23:30:00Z,30.2791,-87.5561,1.03,7.19,1111122 
DISL,ioos:station:DISL:PPTA:1,2014-11-03T00:00:00Z,30.2791,-87.5561,1.018,6.98,1111122 
DISL,ioos:station:DISL:PPTA:1,2014-11-03T00:30:00Z,30.2791,-87.5561,1.049,6.97,1111122 
DISL,ioos:station:DISL:PPTA:1,2014-11-03T01:00:00Z,30.2791,-87.5561,1.042,7.23,1111122 
DISL,ioos:station:DISL:PPTA:1,2014-11-03T01:30:00Z,30.2791,-87.5561,1.06,7.08,1111122 
DISL,ioos:station:DISL:PPTA:1,2014-11-03T02:00:00Z,30.2791,-87.5561,1.066,7.07,1111122 
DISL,ioos:station:DISL:PPTA:1,2014-11-03T02:30:00Z,30.2791,-87.5561,1.06,6.74,1111122 
DISL,ioos:station:DISL:PPTA:1,2014-11-03T03:00:00Z,30.2791,-87.5561,1.054,6.94,1111122 
DISL,ioos:station:DISL:PPTA:1,2014-11-03T03:30:00Z,30.2791,-87.5561,1.035,6.73,1111122 
DISL,ioos:station:DISL:PPTA:1,2014-11-03T04:00:00Z,30.2791,-87.5561,1.032,6.66,1111122 
DISL,ioos:station:DISL:PPTA:1,2014-11-03T04:30:00Z,30.2791,-87.5561,1.035,7.19,1111122 
DISL,ioos:station:DISL:PPTA:1,2014-11-03T05:00:00Z,30.2791,-87.5561,1.035,7.42,1111122 
DISL,ioos:station:DISL:PPTA:1,2014-11-03T05:30:00Z,30.2791,-87.5561,1.034,7.43,1111122 
DISL,ioos:station:DISL:PPTA:1,2014-11-03T06:00:00Z,30.2791,-87.5561,1.031,7.35,1111122 
DISL,ioos:station:DISL:PPTA:1,2014-11-03T06:30:00Z,30.2791,-87.5561,1.036,7.21,1111122 
DISL,ioos:station:DISL:PPTA:1,2014-11-03T07:00:00Z,30.2791,-87.5561,1.039,7.14,1111122 
DISL,ioos:station:DISL:PPTA:1,2014-11-03T07:30:00Z,30.2791,-87.5561,1.049,7.1,1111122 
DISL,ioos:station:DISL:PPTA:1,2014-11-03T08:00:00Z,30.2791,-87.5561,1.061,7.25,1111122 
DISL,ioos:station:DISL:PPTA:1,2014-11-03T08:30:00Z,30.2791,-87.5561,1.055,6.88,1111122 
DISL,ioos:station:DISL:PPTA:1,2014-11-03T09:00:00Z,30.2791,-87.5561,1.058,7.22,1111122 
DISL,ioos:station:DISL:PPTA:1,2014-11-03T09:30:00Z,30.2791,-87.5561,1.078,7.28,1111122 
DISL,ioos:station:DISL:PPTA:1,2014-11-03T10:00:00Z,30.2791,-87.5561,1.067,7.11,1111122 
DISL,ioos:station:DISL:PPTA:1,2014-11-03T10:30:00Z,30.2791,-87.5561,1.075,6.59,1111122 
DISL,ioos:station:DISL:PPTA:1,2014-11-03T11:00:00Z,30.2791,-87.5561,1.086,6.67,1111122 
DISL,ioos:station:DISL:PPTA:1,2014-11-03T11:30:00Z,30.2791,-87.5561,1.073,7.03,1111122 
DISL,ioos:station:DISL:PPTA:1,2014-11-03T12:00:00Z,30.2791,-87.5561,1.096,6.44,1111122 
DISL,ioos:station:DISL:PPTA:1,2014-11-03T12:30:00Z,30.2791,-87.5561,1.103,6.32,1111122 
DISL,ioos:station:DISL:PPTA:1,2014-11-03T13:00:00Z,30.2791,-87.5561,1.103,6.31,1111122 
DISL,ioos:station:DISL:PPTA:1,2014-11-03T13:30:00Z,30.2791,-87.5561,1.135,6.42,1111122 
DISL,ioos:station:DISL:PPTA:1,2014-11-03T14:00:00Z,30.2791,-87.5561,1.118,6.78,1111122 
DISL,ioos:station:DISL:PPTA:1,2014-11-03T14:30:00Z,30.2791,-87.5561,1.126,6.93,1111122 
DISL,ioos:station:DISL:PPTA:1,2014-11-03T15:00:00Z,30.2791,-87.5561,1.141,7.07,1111122 
DISL,ioos:station:DISL:PPTA:1,2014-11-03T15:30:00Z,30.2791,-87.5561,1.127,7.15,1111122 
DISL,ioos:station:DISL:PPTA:1,2014-11-03T16:00:00Z,30.2791,-87.5561,1.136,7.32,1111122 
DISL,ioos:station:DISL:PPTA:1,2014-11-03T16:30:00Z,30.2791,-87.5561,1.106,7.29,1111122 
DISL,ioos:station:DISL:PPTA:1,2014-11-03T17:00:00Z,30.2791,-87.5561,1.111,7.23,1111122 
DISL,ioos:station:DISL:PPTA:1,2014-11-03T17:30:00Z,30.2791,-87.5561,1.122,6.57,1111122 
DISL,ioos:station:DISL:PPTA:1,2014-11-03T18:00:00Z,30.2791,-87.5561,1.131,7.54,1111122 
DISL,ioos:station:DISL:PPTA:1,2014-11-03T18:30:00Z,30.2791,-87.5561,1.13,7.52,1111122 
DISL,ioos:station:DISL:PPTA:1,2014-11-03T19:00:00Z,30.2791,-87.5561,1.121,7.32,1111122 
DISL,ioos:station:DISL:PPTA:1,2014-11-03T19:30:00Z,30.2791,-87.5561,1.145,7.42,1111122 
DISL,ioos:station:DISL:PPTA:1,2014-11-03T20:00:00Z,30.2791,-87.5561,1.156,7.33,1111122 
DISL,ioos:station:DISL:PPTA:1,2014-11-03T20:30:00Z,30.2791,-87.5561,1.133,7.68,1111122 
DISL,ioos:station:DISL:PPTA:1,2014-11-03T21:00:00Z,30.2791,-87.5561,1.19,7.48,1111122 
DISL,ioos:station:DISL:PPTA:1,2014-11-03T21:30:00Z,30.2791,-87.5561,1.169,6.98,1111122 
DISL,ioos:station:DISL:PPTA:1,2014-11-03T22:00:00Z,30.2791,-87.5561,1.165,7.41,1111122 
DISL,ioos:station:DISL:PPTA:1,2014-11-03T22:30:00Z,30.2791,-87.5561,1.192,6.85,1111122 
DISL,ioos:station:DISL:PPTA:1,2014-11-03T23:00:00Z,30.2791,-87.5561,1.178,6.99,1111122 
DISL,ioos:station:DISL:PPTA:1,2014-11-03T23:30:00Z,30.2791,-87.5561,1.195,6.67,1111122 
DISL,ioos:station:DISL:PPTA:1,2014-11-04T00:00:00Z,30.2791,-87.5561,1.197,6.52,1111122 
DISL,ioos:station:DISL:PPTA:1,2014-11-04T00:30:00Z,30.2791,-87.5561,1.204,6.88,1111122 
DISL,ioos:station:DISL:PPTA:1,2014-11-04T01:00:00Z,30.2791,-87.5561,1.219,6.66,1111122 
DISL,ioos:station:DISL:PPTA:1,2014-11-04T01:30:00Z,30.2791,-87.5561,1.222,6.73,1111122 
DISL,ioos:station:DISL:PPTA:1,2014-11-04T02:00:00Z,30.2791,-87.5561,1.243,6.57,1111122 
DISL,ioos:station:DISL:PPTA:1,2014-11-04T02:30:00Z,30.2791,-87.5561,1.241,6.61,1111122 
DISL,ioos:station:DISL:PPTA:1,2014-11-04T03:00:00Z,30.2791,-87.5561,1.23,6.68,1111122 
DISL,ioos:station:DISL:PPTA:1,2014-11-04T03:30:00Z,30.2791,-87.5561,1.225,6.57,1111122 
DISL,ioos:station:DISL:PPTA:1,2014-11-04T04:00:00Z,30.2791,-87.5561,1.226,6.59,1111122 
DISL,ioos:station:DISL:PPTA:1,2014-11-04T04:30:00Z,30.2791,-87.5561,1.199,6.63,1111122 
DISL,ioos:station:DISL:PPTA:1,2014-11-04T05:00:00Z,30.2791,-87.5561,1.185,6.81,1111122 
DISL,ioos:station:DISL:PPTA:1,2014-11-04T05:30:00Z,30.2791,-87.5561,1.178,6.87,1111122 
DISL,ioos:station:DISL:PPTA:1,2014-11-04T06:00:00Z,30.2791,-87.5561,1.196,7.33,1111122 
DISL,ioos:station:DISL:PPTA:1,2014-11-04T06:30:00Z,30.2791,-87.5561,1.193,7.23,1111122 
DISL,ioos:station:DISL:PPTA:1,2014-11-04T07:00:00Z,30.2791,-87.5561,1.185,7.2,1111122 
DISL,ioos:station:DISL:PPTA:1,2014-11-04T07:30:00Z,30.2791,-87.5561,1.188,6.9,1111122 
DISL,ioos:station:DISL:PPTA:1,2014-11-04T08:00:00Z,30.2791,-87.5561,1.184,6.76,1111122 
DISL,ioos:station:DISL:PPTA:1,2014-11-04T08:30:00Z,30.2791,-87.5561,1.182,6.93,1111122 
DISL,ioos:station:DISL:PPTA:1,2014-11-04T09:00:00Z,30.2791,-87.5561,1.186,6.96,1111122 
DISL,ioos:station:DISL:PPTA:1,2014-11-04T09:30:00Z,30.2791,-87.5561,1.174,6.98,1111122 
DISL,ioos:station:DISL:PPTA:1,2014-11-04T10:00:00Z,30.2791,-87.5561,1.182,7.33,1111122 
DISL,ioos:station:DISL:PPTA:1,2014-11-04T10:30:00Z,30.2791,-87.5561,1.179,7.36,1111122 
DISL,ioos:station:DISL:PPTA:1,2014-11-04T11:00:00Z,30.2791,-87.5561,1.184,7.5,1111122 
DISL,ioos:station:DISL:PPTA:1,2014-11-04T11:30:00Z,30.2791,-87.5561,1.194,7.41,1111122 
DISL,ioos:station:DISL:PPTA:1,2014-11-04T12:00:00Z,30.2791,-87.5561,1.173,6.8,1111122 
DISL,ioos:station:DISL:PPTA:1,2014-11-04T12:30:00Z,30.2791,-87.5561,1.199,6.9,1111122 
DISL,ioos:station:DISL:PPTA:1,2014-11-04T13:00:00Z,30.2791,-87.5561,1.181,6.93,1111122 
DISL,ioos:station:DISL:PPTA:1,2014-11-04T13:30:00Z,30.2791,-87.5561,1.189,6.63,1111122 
DISL,ioos:station:DISL:PPTA:1,2014-11-04T14:00:00Z,30.2791,-87.5561,1.218,6.55,1111122 
DISL,ioos:station:DISL:PPTA:1,2014-11-04T14:30:00Z,30.2791,-87.5561,1.205,6.92,1111122 
DISL,ioos:station:DISL:PPTA:1,2014-11-04T15:00:00Z,30.2791,-87.5561,1.233,7.03,1111122 
DISL,ioos:station:DISL:PPTA:1,2014-11-04T15:30:00Z,30.2791,-87.5561,1.251,7.0,1111122 
DISL,ioos:station:DISL:PPTA:1,2014-11-04T16:00:00Z,30.2791,-87.5561,1.226,7.0,1111122 
DISL,ioos:station:DISL:PPTA:1,2014-11-04T16:30:00Z,30.2791,-87.5561,1.241,7.09,1111122 
DISL,ioos:station:DISL:PPTA:1,2014-11-04T17:00:00Z,30.2791,-87.5561,1.229,6.97,1111122 
DISL,ioos:station:DISL:PPTA:1,2014-11-04T17:30:00Z,30.2791,-87.5561,1.228,7.08,1111122 
DISL,ioos:station:DISL:PPTA:1,2014-11-04T18:00:00Z,30.2791,-87.5561,1.234,7.19,1111122 
DISL,ioos:station:DISL:PPTA:1,2014-11-04T18:30:00Z,30.2791,-87.5561,1.237,7.0,1111122 
DISL,ioos:station:DISL:PPTA:1,2014-11-04T19:00:00Z,30.2791,-87.5561,1.25,7.08,1111122 
DISL,ioos:station:DISL:PPTA:1,2014-11-04T19:30:00Z,30.2791,-87.5561,1.269,7.26,1111122 
DISL,ioos:station:DISL:PPTA:1,2014-11-04T20:00:00Z,30.2791,-87.5561,1.296,7.26,1111122 
DISL,ioos:station:DISL:PPTA:1,2014-11-04T20:30:00Z,30.2791,-87.5561,1.293,7.28,1111122 
DISL,ioos:station:DISL:PPTA:1,2014-11-04T21:00:00Z,30.2791,-87.5561,1.307,7.36,1111122 
DISL,ioos:station:DISL:PPTA:1,2014-11-04T21:30:00Z,30.2791,-87.5561,1.32,7.35,1111122 
DISL,ioos:station:DISL:PPTA:1,2014-11-04T22:00:00Z,30.2791,-87.5561,1.34,7.3,1111122 
DISL,ioos:station:DISL:PPTA:1,2014-11-04T22:30:00Z,30.2791,-87.5561,1.344,7.15,1111122 
DISL,ioos:station:DISL:PPTA:1,2014-11-04T23:00:00Z,30.2791,-87.5561,1.346,7.08,1111122 
DISL,ioos:station:DISL:PPTA:1,2014-11-04T23:30:00Z,30.2791,-87.5561,1.346,6.97,1111122 
DISL,ioos:station:DISL:PPTA:1,2014-11-05T00:00:00Z,30.2791,-87.5561,1.347,6.48,1111122 
DISL,ioos:station:DISL:PPTA:1,2014-11-05T00:30:00Z,30.2791,-87.5561,1.367,6.32,1111122 
DISL,ioos:station:DISL:PPTA:1,2014-11-05T01:00:00Z,30.2791,-87.5561,1.368,6.51,1111122 
DISL,ioos:station:DISL:PPTA:1,2014-11-05T01:30:00Z,30.2791,-87.5561,1.386,6.3,1111122 
DISL,ioos:station:DISL:PPTA:1,2014-11-05T02:00:00Z,30.2791,-87.5561,1.393,6.34,1111122 
DISL,ioos:station:DISL:PPTA:1,2014-11-05T02:30:00Z,30.2791,-87.5561,1.411,6.25,1111122 
DISL,ioos:station:DISL:PPTA:1,2014-11-05T03:00:00Z,30.2791,-87.5561,1.399,6.35,1111122 
DISL,ioos:station:DISL:PPTA:1,2014-11-05T03:30:00Z,30.2791,-87.5561,1.402,6.45,1111122 
DISL,ioos:station:DISL:PPTA:1,2014-11-05T04:00:00Z,30.2791,-87.5561,1.369,6.54,1111122 
DISL,ioos:station:DISL:PPTA:1,2014-11-05T04:30:00Z,30.2791,-87.5561,1.352,6.44,1111122 
DISL,ioos:station:DISL:PPTA:1,2014-11-05T05:00:00Z,30.2791,-87.5561,1.351,6.99,1111122 
DISL,ioos:station:DISL:PPTA:1,2014-11-05T05:30:00Z,30.2791,-87.5561,1.327,6.67,1111122 
DISL,ioos:station:DISL:PPTA:1,2014-11-05T06:00:00Z,30.2791,-87.5561,1.307,6.56,1111122 
DISL,ioos:station:DISL:PPTA:1,2014-11-05T06:30:00Z,30.2791,-87.5561,1.303,6.82,1111122 
DISL,ioos:station:DISL:PPTA:1,2014-11-05T07:00:00Z,30.2791,-87.5561,1.293,6.78,1111122 
DISL,ioos:station:DISL:PPTA:1,2014-11-05T07:30:00Z,30.2791,-87.5561,1.278,6.79,1111122 
DISL,ioos:station:DISL:PPTA:1,2014-11-05T08:00:00Z,30.2791,-87.5561,1.265,6.77,1111122 
DISL,ioos:station:DISL:PPTA:1,2014-11-05T08:30:00Z,30.2791,-87.5561,1.264,6.99,1111122 
DISL,ioos:station:DISL:PPTA:1,2014-11-05T09:00:00Z,30.2791,-87.5561,1.263,7.24,1111122 
DISL,ioos:station:DISL:PPTA:1,2014-11-05T09:30:00Z,30.2791,-87.5561,1.249,7.1,1111122 
DISL,ioos:station:DISL:PPTA:1,2014-11-05T10:00:00Z,30.2791,-87.5561,1.245,7.2,1111122 
DISL,ioos:station:DISL:PPTA:1,2014-11-05T10:30:00Z,30.2791,-87.5561,1.242,7.21,1111122 
DISL,ioos:station:DISL:PPTA:1,2014-11-05T11:00:00Z,30.2791,-87.5561,1.229,7.28,1111122 
DISL,ioos:station:DISL:PPTA:1,2014-11-05T11:30:00Z,30.2791,-87.5561,1.226,6.97,1111122 
DISL,ioos:station:DISL:PPTA:1,2014-11-05T12:00:00Z,30.2791,-87.5561,1.231,7.39,1111122 
DISL,ioos:station:DISL:PPTA:1,2014-11-05T12:30:00Z,30.2791,-87.5561,1.217,7.34,1111122 
DISL,ioos:station:DISL:PPTA:1,2014-11-05T13:00:00Z,30.2791,-87.5561,1.213,7.48,1111122 
DISL,ioos:station:DISL:PPTA:1,2014-11-05T13:30:00Z,30.2791,-87.5561,1.237,7.36,1111122 
DISL,ioos:station:DISL:PPTA:1,2014-11-05T14:00:00Z,30.2791,-87.5561,1.223,7.2,1111122 
DISL,ioos:station:DISL:PPTA:1,2014-11-05T14:30:00Z,30.2791,-87.5561,1.241,7.29,1111122 
DISL,ioos:station:DISL:PPTA:1,2014-11-05T15:00:00Z,30.2791,-87.5561,1.256,7.27,1111122 
DISL,ioos:station:DISL:PPTA:1,2014-11-05T15:30:00Z,30.2791,-87.5561,1.259,7.08,1111122 
DISL,ioos:station:DISL:PPTA:1,2014-11-05T16:00:00Z,30.2791,-87.5561,1.254,7.4,1111122 
DISL,ioos:station:DISL:PPTA:1,2014-11-05T16:30:00Z,30.2791,-87.5561,1.265,7.26,1111122 
DISL,ioos:station:DISL:PPTA:1,2014-11-05T17:00:00Z,30.2791,-87.5561,1.254,7.07,1111122 
DISL,ioos:station:DISL:PPTA:1,2014-11-05T17:30:00Z,30.2791,-87.5561,1.275,7.51,1111122 
DISL,ioos:station:DISL:PPTA:1,2014-11-05T18:00:00Z,30.2791,-87.5561,1.252,7.51,1111122 
DISL,ioos:station:DISL:PPTA:1,2014-11-05T18:30:00Z,30.2791,-87.5561,1.261,7.67,1111122 
DISL,ioos:station:DISL:PPTA:1,2014-11-05T19:00:00Z,30.2791,-87.5561,1.28,7.6,1111122 
DISL,ioos:station:DISL:PPTA:1,2014-11-05T19:30:00Z,30.2791,-87.5561,1.274,7.57,1111122 
DISL,ioos:station:DISL:PPTA:1,2014-11-05T20:00:00Z,30.2791,-87.5561,1.336,7.58,1111122 
DISL,ioos:station:DISL:PPTA:1,2014-11-05T20:30:00Z,30.2791,-87.5561,1.319,7.56,1111122 
DISL,ioos:station:DISL:PPTA:1,2014-11-05T21:00:00Z,30.2791,-87.5561,1.34,7.55,1111122 
DISL,ioos:station:DISL:PPTA:1,2014-11-05T21:30:00Z,30.2791,-87.5561,1.363,7.54,1111122 
DISL,ioos:station:DISL:PPTA:1,2014-11-05T22:00:00Z,30.2791,-87.5561,1.376,7.53,1111122 
DISL,ioos:station:DISL:PPTA:1,2014-11-05T22:30:00Z,30.2791,-87.5561,1.384,7.36,1111122 
DISL,ioos:station:DISL:PPTA:1,2014-11-05T23:00:00Z,30.2791,-87.5561,1.393,7.2,1111122 
DISL,ioos:station:DISL:PPTA:1,2014-11-05T23:30:00Z,30.2791,-87.5561,1.39,7.18,1111122 
DISL,ioos:station:DISL:PPTA:1,2014-11-06T00:00:00Z,30.2791,-87.5561,1.415,7.08,1111122 
DISL,ioos:station:DISL:PPTA:1,2014-11-06T00:30:00Z,30.2791,-87.5561,1.41,7.1,1111122 
DISL,ioos:station:DISL:PPTA:1,2014-11-06T01:00:00Z,30.2791,-87.5561,1.438,7.09,1111122 
DISL,ioos:station:DISL:PPTA:1,2014-11-06T01:30:00Z,30.2791,-87.5561,1.442,7.12,1111122 
DISL,ioos:station:DISL:PPTA:1,2014-11-06T02:00:00Z,30.2791,-87.5561,1.456,6.9,1111122 
DISL,ioos:station:DISL:PPTA:1,2014-11-06T02:30:00Z,30.2791,-87.5561,1.47,6.97,1111122 
DISL,ioos:station:DISL:PPTA:1,2014-11-06T03:00:00Z,30.2791,-87.5561,1.451,6.93,1111122 
DISL,ioos:station:DISL:PPTA:1,2014-11-06T03:30:00Z,30.2791,-87.5561,1.457,6.99,1111122 
DISL,ioos:station:DISL:PPTA:1,2014-11-06T04:00:00Z,30.2791,-87.5561,1.445,7.04,1111122 
DISL,ioos:station:DISL:PPTA:1,2014-11-06T04:30:00Z,30.2791,-87.5561,1.426,6.93,1111122 
DISL,ioos:station:DISL:PPTA:1,2014-11-06T05:00:00Z,30.2791,-87.5561,1.414,6.92,1111122 
DISL,ioos:station:DISL:PPTA:1,2014-11-06T05:30:00Z,30.2791,-87.5561,1.391,6.85,1111122 
DISL,ioos:station:DISL:PPTA:1,2014-11-06T06:00:00Z,30.2791,-87.5561,1.376,6.9,1111122 
DISL,ioos:station:DISL:PPTA:1,2014-11-06T06:30:00Z,30.2791,-87.5561,1.349,7.13,1111122 
DISL,ioos:station:DISL:PPTA:1,2014-11-06T07:00:00Z,30.2791,-87.5561,1.333,7.02,1111122 
DISL,ioos:station:DISL:PPTA:1,2014-11-06T07:30:00Z,30.2791,-87.5561,1.318,7.02,1111122 
DISL,ioos:station:DISL:PPTA:1,2014-11-06T08:00:00Z,30.2791,-87.5561,1.304,7.01,1111122 
DISL,ioos:station:DISL:PPTA:1,2014-11-06T08:30:00Z,30.2791,-87.5561,1.289,7.24,1111122 
DISL,ioos:station:DISL:PPTA:1,2014-11-06T09:00:00Z,30.2791,-87.5561,1.281,7.38,1111122 
DISL,ioos:station:DISL:PPTA:1,2014-11-06T09:30:00Z,30.2791,-87.5561,1.266,7.35,1111122 
DISL,ioos:station:DISL:PPTA:1,2014-11-06T10:00:00Z,30.2791,-87.5561,1.258,7.32,1111122 
DISL,ioos:station:DISL:PPTA:1,2014-11-06T10:30:00Z,30.2791,-87.5561,1.252,7.34,1111122 
DISL,ioos:station:DISL:PPTA:1,2014-11-06T11:00:00Z,30.2791,-87.5561,1.247,7.41,1111122 
DISL,ioos:station:DISL:PPTA:1,2014-11-06T11:30:00Z,30.2791,-87.5561,1.23,7.45,1111122 
DISL,ioos:station:DISL:PPTA:1,2014-11-06T12:00:00Z,30.2791,-87.5561,1.219,7.31,1111122 
DISL,ioos:station:DISL:PPTA:1,2014-11-06T12:30:00Z,30.2791,-87.5561,1.224,7.4,1111122 
DISL,ioos:station:DISL:PPTA:1,2014-11-06T13:00:00Z,30.2791,-87.5561,1.194,7.2,1111122 
DISL,ioos:station:DISL:PPTA:1,2014-11-06T13:30:00Z,30.2791,-87.5561,1.216,7.32,1111122 
DISL,ioos:station:DISL:PPTA:1,2014-11-06T14:00:00Z,30.2791,-87.5561,1.236,7.67,1111122 
DISL,ioos:station:DISL:PPTA:1,2014-11-06T14:30:00Z,30.2791,-87.5561,1.223,7.55,1111122 
DISL,ioos:station:DISL:PPTA:1,2014-11-06T15:00:00Z,30.2791,-87.5561,1.233,7.23,1111122 
DISL,ioos:station:DISL:PPTA:1,2014-11-06T15:30:00Z,30.2791,-87.5561,1.221,7.24,1111122 